Weather History for KLXT - May, 2014

Change the Weather History Date:

Tuesday, May 13, 2014

  Actual Average (KMKC) Record (KMKC)
Temperature  
Mean Temperature 54 °F -  
Max Temperature 62 °F 73 °F 88 °F (2007)
Min Temperature 48 °F 54 °F 42 °F (1997)
Degree Days  
Heating Degree Days 10    
Growing Degree Days 4 (Base 50)    
Moisture  
Dew Point 42 °F    
Average Humidity 70    
Maximum Humidity 90    
Minimum Humidity 39    
Precipitation  
Precipitation 0.00 in - - ()
Sea Level Pressure  
Sea Level Pressure 30.15 in    
Wind  
Wind Speed 11 mph (NNW)    
Max Wind Speed 15 mph    
Max Gust Speed 23 mph    
Visibility 10 miles    
Events      
Averages and records for this station are not official NWS values.
T = Trace of Precipitation, MM = Missing Value Source: NWS Daily Summary

Daily Weather History Graph

Daily Weather History Graph

Search for Another Location

Airport or City:

Trip Planner

Search our weather history database for the weather conditions in past years. The results will help you decide how hot, cold, wet, or windy it might be!

Date:

Astronomy

May. 13, 2014 Rise Set
Actual Time 6:06 AM CDT 8:21 PM CDT
Civil Twilight 5:36 AM CDT 8:51 PM CDT
Nautical Twilight 5:00 AM CDT 9:28 PM CDT
Astronomical Twilight 4:19 AM CDT 10:08 PM CDT
Moon 7:24 PM CDT (5/13) 5:22 AM CDT (5/13)
Length of Visible Light 15h 14m
Length of Day
14h 14m
Waxing Gibbous, 99% of the Moon is Illuminated
May 13
Waxing Gibbous
May 14
Full
May 21
Last Quarter
May 28
New
Jun 5
First Quarter

Hourly Weather History & Observations

Time (CDT) Temp. Dew Point Humidity Pressure Visibility Wind Dir Wind Speed Gust Speed Precip Events Conditions
12:10 AM 48.9 °F 46.0 °F 90% 30.05 in 7.0 mi NW 10.4 mph - N/A   Overcast
12:18 AM 48.9 °F 46.0 °F 90% 30.05 in 9.0 mi NW 13.8 mph - N/A   Overcast
12:33 AM 48.9 °F 46.0 °F 90% 30.06 in 10.0 mi NW 9.2 mph - N/A   Overcast
12:49 AM 48.2 °F 44.6 °F 87% 30.06 in 10.0 mi NW 10.4 mph - N/A   Overcast
1:46 AM 48.9 °F 45.0 °F 86% 30.07 in 10.0 mi NW 13.8 mph 18.4 mph N/A   Overcast
1:53 AM 48.9 °F 44.1 °F 83% 30.06 in 10.0 mi NNW 11.5 mph - N/A   Overcast
2:27 AM 48.9 °F 44.1 °F 83% 30.06 in 10.0 mi WNW 8.1 mph - N/A   Overcast
2:53 AM 48.9 °F 44.1 °F 83% 30.06 in 10.0 mi NW 8.1 mph - N/A   Overcast
3:40 AM 48.9 °F 44.1 °F 83% 30.06 in 10.0 mi NW 11.5 mph - N/A   Overcast
3:53 AM 48.9 °F 43.0 °F 80% 30.07 in 10.0 mi NW 11.5 mph - N/A   Overcast
4:53 AM 48.9 °F 43.0 °F 80% 30.06 in 10.0 mi NW 12.7 mph - N/A   Overcast
5:53 AM 48.0 °F 43.0 °F 83% 30.07 in 10.0 mi NW 8.1 mph - N/A   Overcast
6:53 AM 48.9 °F 43.0 °F 80% 30.11 in 10.0 mi NW 13.8 mph 21.9 mph N/A   Overcast
7:08 AM 48.9 °F 43.0 °F 80% 30.11 in 10.0 mi NW 10.4 mph - N/A   Overcast
7:16 AM 48.9 °F 43.0 °F 80% 30.11 in 10.0 mi NW 11.5 mph - N/A   Overcast
8:53 AM 50.0 °F 42.1 °F 74% 30.14 in 10.0 mi NNW 11.5 mph - N/A   Overcast
9:53 AM 48.9 °F 42.1 °F 77% 30.19 in 10.0 mi NW 10.4 mph - N/A   Overcast
11:53 AM 52.0 °F 43.0 °F 71% 30.20 in 10.0 mi NNW 9.2 mph - N/A   Overcast
12:48 PM 55.4 °F 42.8 °F 63% 30.20 in 10.0 mi North 11.5 mph 18.4 mph N/A   Overcast
12:53 PM 55.9 °F 43.0 °F 62% 30.21 in 10.0 mi NW 11.5 mph - N/A   Overcast
1:39 PM 55.0 °F 43.0 °F 64% 30.20 in 10.0 mi NW 12.7 mph - N/A   Overcast
1:53 PM 55.9 °F 43.0 °F 62% 30.21 in 10.0 mi NW 11.5 mph - N/A   Overcast
2:53 PM 55.9 °F 42.1 °F 60% 30.22 in 10.0 mi North 12.7 mph - N/A   Overcast
3:53 PM 57.9 °F 41.0 °F 53% 30.20 in 10.0 mi North 11.5 mph 18.4 mph N/A   Overcast
4:53 PM 61.0 °F 41.0 °F 48% 30.19 in 10.0 mi NNW 11.5 mph 19.6 mph N/A   Scattered Clouds
5:53 PM 61.0 °F 37.9 °F 42% 30.19 in 10.0 mi North 10.4 mph - N/A   Scattered Clouds
6:53 PM 61.0 °F 36.0 °F 39% 30.19 in 10.0 mi North 15.0 mph 23.0 mph N/A   Clear
7:53 PM 57.9 °F 36.0 °F 44% 30.21 in 10.0 mi North 9.2 mph - N/A   Overcast
8:53 PM 54.0 °F 36.0 °F 51% 30.24 in 10.0 mi NNW 6.9 mph - N/A   Partly Cloudy
9:53 PM 53.1 °F 37.0 °F 55% 30.26 in 10.0 mi North 8.1 mph - N/A   Clear
10:53 PM 51.1 °F 37.0 °F 59% 30.26 in 10.0 mi North 5.8 mph - N/A   Clear
11:53 PM 50.0 °F 37.9 °F 63% 30.27 in 10.0 mi North 4.6 mph - N/A   Clear